Wind_Speed
34 32 31 31 29 28 24 25 31 33 33 32 33 33 34 36 40 43 44 46 47 49 51 53 53 54 57 57 56 57 58 59
36 35 35 33 32 31 29 27 25 25 27 28 31 34 36 37 37 40 44 47 49 52 54 56 57 58 60 60 60 59 60 60
40 38 36 35 34 35 36 34 32 31 31 32 35 37 38 41 43 45 47 49 50 52 54 56 58 59 60 62 61 60 61 62
41 39 36 36 35 35 35 36 36 36 37 38 40 41 43 43 44 46 49 51 52 54 56 58 60 60 59 60 63 64 64 66
43 42 42 41 40 39 39 39 40 41 42 43 45 45 45 46 47 49 49 50 51 51 53 56 57 58 59 62 65 68 70 70
48 46 43 41 41 41 42 43 43 44 45 45 45 47 49 51 52 53 52 53 52 53 54 56 59 62 63 63 65 66 66 65
48 47 46 45 44 44 45 46 47 49 50 51 53 54 55 54 55 56 57 58 59 59 60 61 61 62 63 64 64 63 61 58
47 48 49 50 50 49 49 51 53 54 54 52 52 51 52 53 54 56 57 58 58 58 59 59 60 61 63 63 62 60 57 53
47 50 50 50 52 54 56 58 57 53 50 51 52 53 54 54 53 52 52 54 55 56 57 58 60 62 63 63 62 59 55 55
40 45 49 52 53 53 51 51 50 51 51 51 52 52 52 53 53 55 56 56 56 56 58 59 61 61 62 61 60 59 58 59
36 38 41 42 43 45 46 46 45 45 47 48 49 49 50 51 53 54 55 56 57 59 59 59 58 59 56 55 55 52 52 51
39 38 38 40 41 41 41 42 43 44 45 45 46 47 48 49 50 51 52 53 51 50 50 51 51 52 51 51 51 48 48 49
40 39 39 39 40 41 42 43 44 44 45 45 45 44 43 43 43 42 43 44 46 46 47 47 46 44 44 45 45 46 45 47
37 37 38 37 39 40 40 40 38 38 39 39 40 41 41 42 43 43 43 43 42 40 40 40 39 38 37 39 40 40 42 43
37 36 35 36 35 34 34 34 34 35 36 36 37 37 37 37 36 36 35 36 38 37 36 35 35 34 34 35 37 37 38 39
33 31 31 30 29 31 31 30 29 30 32 33 34 35 35 35 35 34 32 32 32 33 33 34 35 36 35 35 37 39 41 43
30 28 26 29 32 32 30 29 28 29 30 30 31 31 32 33 33 35 35 36 38 37 38 38 40 41 42 43 43 44 46 47
31 31 32 32 32 32 33 34 33 33 34 35 36 36 37 38 39 42 42 41 41 42 42 43 43 44 45 45 47 48 50 51
35 38 40 39 38 38 38 39 40 40 40 41 42 43 44 45 46 47 47 47 47 47 48 49 48 49 49 51 52 53 54 56
41 43 43 43 42 43 43 44 46 48 48 46 47 48 49 50 51 50 51 52 54 55 55 55 56 57 59 59 60 61 61 62
Wind_Direction
250 252 250 246 245 252 257 250 245 246 250 252 257 260 262 266 267 268 270 271 273 276 277 279 281 282 283 285 287 288 289 290
252 251 251 248 243 240 243 241 239 238 241 249 251 254 257 261 264 264 266 270 271 271 272 275 277 279 280 283 286 288 289 291
253 253 253 250 245 244 246 247 247 248 251 252 252 252 255 260 266 268 270 271 272 271 272 274 275 278 281 283 287 289 291 292
253 254 251 250 250 248 247 247 251 251 253 254 257 261 263 265 267 269 270 273 276 277 276 276 278 280 283 285 287 288 289 291
249 252 254 254 254 253 250 250 251 253 256 259 262 263 264 265 266 270 276 276 277 280 282 281 280 281 284 286 288 290 291 292
244 248 252 252 252 252 253 256 259 261 262 264 264 265 264 266 269 273 277 279 280 283 281 280 280 281 283 286 288 290 290 291
240 246 250 253 255 255 257 261 263 264 266 268 269 272 276 277 278 279 280 283 285 286 286 286 285 285 286 286 287 286 287 288
241 244 245 249 254 257 262 267 271 272 271 271 273 276 278 279 279 279 280 282 283 284 285 285 284 284 284 285 285 286 286 286
240 243 246 249 253 257 260 264 266 269 272 273 274 275 276 277 278 280 281 282 282 282 283 284 284 284 283 283 283 283 285 287
252 251 250 250 256 262 264 265 266 267 269 271 272 274 276 279 281 281 281 281 280 281 281 281 282 284 285 287 289 291 293 294
256 255 258 258 258 258 262 264 266 269 271 273 276 278 280 281 281 279 280 280 281 281 282 284 288 290 294 297 297 295 292 290
244 247 250 251 253 254 256 259 262 265 268 271 274 274 276 278 280 282 283 286 288 289 290 292 293 292 293 294 294 296 297 298
244 246 249 250 252 254 256 258 261 265 267 269 272 274 278 282 284 284 284 283 284 284 285 285 289 293 297 299 300 302 303 303
244 248 250 250 253 255 258 261 266 269 272 274 277 280 281 279 278 278 278 280 283 288 292 294 295 295 297 297 299 301 301 300
246 247 251 255 258 264 269 271 271 272 272 272 273 274 274 275 277 278 281 284 287 288 290 293 295 299 302 304 307 307 308 305
244 248 252 258 264 267 266 265 267 268 268 268 268 269 270 271 273 276 278 284 286 287 289 291 294 295 293 293 296 297 297 296
238 249 259 265 263 261 260 262 267 270 272 275 276 278 278 279 282 284 283 283 284 284 286 287 287 288 288 289 289 289 288 287
248 255 255 255 258 260 260 263 269 273 277 277 278 282 284 284 283 282 281 281 281 282 283 283 285 287 288 286 286 285 284 284
254 256 256 256 258 259 262 265 267 268 271 275 278 280 280 281 282 282 283 283 284 285 288 288 287 288 288 289 292 292 291 290
254 257 260 264 266 268 270 273 275 275 273 275 278 281 282 283 283 283 284 287 289 291 291 291 292 293 293 292 292 293 293 292
Height
5786 5788 5790 5791 5793 5793 5793 5794 5795 5797 5799 5801 5801 5801 5802 5802 5802 5801 5801 5800 5799 5797 5795 5792 5790 5787 5785 5782 5781 5777 5775 5772
5777 5779 5782 5783 5785 5786 5786 5787 5788 5789 5791 5793 5793 5792 5791 5791 5791 5790 5789 5789 5787 5785 5782 5780 5777 5775 5771 5769 5767 5765 5761 5758
5768 5770 5772 5776 5777 5778 5780 5780 5780 5781 5782 5783 5783 5783 5782 5782 5781 5779 5778 5776 5774 5772 5770 5769 5766 5762 5759 5756 5754 5752 5748 5744
5758 5761 5763 5766 5768 5770 5771 5772 5772 5773 5773 5773 5773 5773 5773 5772 5771 5769 5767 5765 5762 5760 5759 5757 5755 5752 5749 5745 5742 5738 5735 5731
5747 5749 5751 5754 5756 5759 5760 5761 5762 5762 5763 5762 5762 5763 5762 5760 5759 5757 5755 5753 5751 5749 5747 5745 5743 5740 5737 5733 5729 5726 5721 5718
5735 5737 5740 5743 5745 5747 5748 5748 5750 5750 5751 5751 5751 5750 5749 5747 5745 5744 5742 5741 5739 5737 5734 5732 5729 5727 5723 5719 5716 5711 5708 5704
5723 5727 5730 5732 5733 5734 5736 5737 5737 5738 5738 5738 5737 5736 5736 5734 5733 5732 5730 5727 5725 5722 5720 5717 5714 5712 5708 5704 5701 5697 5693 5689
5714 5716 5717 5719 5720 5722 5723 5723 5723 5723 5723 5723 5723 5722 5721 5720 5718 5715 5713 5711 5710 5708 5705 5702 5699 5696 5693 5690 5687 5683 5679 5676
5701 5703 5705 5707 5708 5710 5711 5711 5711 5711 5711 5710 5709 5708 5707 5705 5704 5702 5700 5699 5697 5694 5692 5689 5686 5683 5679 5674 5671 5666 5663 5660
5688 5691 5693 5695 5697 5698 5698 5698 5698 5698 5697 5696 5696 5694 5693 5691 5689 5687 5685 5683 5680 5678 5675 5672 5669 5667 5662 5658 5656 5652 5649 5646
5674 5677 5679 5681 5682 5684 5684 5685 5685 5685 5684 5683 5682 5681 5680 5678 5676 5674 5671 5669 5667 5664 5661 5658 5655 5652 5648 5644 5641 5639 5634 5629
5662 5665 5667 5669 5671 5672 5672 5672 5672 5671 5670 5669 5668 5667 5665 5663 5662 5660 5658 5656 5653 5650 5646 5644 5641 5639 5634 5631 5627 5623 5620 5615
5651 5653 5655 5657 5658 5658 5659 5659 5658 5658 5656 5655 5654 5654 5652 5650 5648 5647 5645 5643 5640 5637 5634 5632 5630 5627 5624 5620 5617 5614 5609 5605
5639 5642 5644 5645 5646 5647 5647 5646 5645 5644 5644 5643 5643 5642 5640 5638 5637 5635 5634 5631 5629 5626 5623 5621 5617 5614 5611 5608 5605 5601 5597 5595
5628 5631 5632 5633 5633 5633 5632 5632 5632 5632 5632 5632 5631 5630 5629 5628 5626 5624 5622 5620 5618 5615 5612 5609 5607 5603 5600 5596 5593 5590 5585 5582
5617 5619 5620 5620 5618 5619 5621 5622 5622 5622 5621 5621 5620 5618 5617 5616 5614 5611 5609 5607 5604 5602 5599 5596 5593 5589 5585 5582 5578 5574 5571 5567
5607 5607 5605 5607 5609 5611 5612 5612 5612 5612 5611 5610 5609 5607 5605 5603 5600 5598 5596 5593 5591 5587 5584 5582 5579 5577 5573 5569 5565 5561 5557 5552
5594 5595 5598 5600 5602 5602 5602 5602 5601 5600 5599 5597 5596 5594 5591 5589 5587 5585 5583 5580 5577 5574 5571 5568 5565 5561 5557 5552 5548 5545 5541 5537
5585 5588 5590 5591 5591 5590 5590 5589 5588 5586 5584 5583 5581 5579 5577 5575 5573 5571 5569 5566 5564 5560 5557 5553 5549 5546 5542 5539 5534 5530 5526 5521
5575 5577 5578 5579 5578 5577 5577 5576 5575 5573 5571 5569 5567 5565 5563 5560 5558 5556 5553 5551 5548 5545 5541 5537 5533 5529 5526 5522 5518 5513 5508 5504